Location: Catacaguana
(10.4120°N, 66.7591°W)
Time: 05:54:54
(UTC+00:00)

GPS 2-15 Rocket1 - Pass Details

Date: 27 May 2022
Orbit: 622 x 674 km, 19.8° (Epoch: 26 June)

Event Time Altitude Azimuth Distance (km) Brightness Sun altitude
Exits shadow 08:12:06 40° 342° (NNW) 916 3.9 -25.7°
Maximum altitude 08:12:58 46° 14° (NNE) 848 3.9 -25.5°
Drops below altitude 10° 08:17:31 10° 87° (E) 2,015 6.5 -24.5°
Sets 08:19:59 0° 93° (E) 2,933 7.4 -24.0°
